Weather History for Shishmaref, AK

Change the Weather History Date:

Sunday, March 31, 2013

  Actual Average Record
Temperature  
Mean Temperature 2 °F -  
Max Temperature 6 °F 9 °F 32 °F (2007)
Min Temperature -2 °F 0 °F -16 °F (2005)
Degree Days  
Heating Degree Days 63    
Moisture  
Dew Point -14 °F    
Average Humidity 48    
Maximum Humidity 85    
Minimum Humidity 23    
Precipitation  
Precipitation 0.00 in - - ()
Sea Level Pressure  
Sea Level Pressure 30.33 in    
Wind  
Wind Speed 3 mph (ESE)    
Max Wind Speed 7 mph    
Max Gust Speed -    
Visibility 10 miles    
Events      
Averages and records for this station are not official NWS values.
T = Trace of Precipitation, MM = Missing Value Source: NWS Daily Summary

Daily Weather History Graph

Daily Weather History Graph

Search for Another Location

Airport:

Trip Planner

Search our weather history database for the weather conditions in past years. The results will help you decide how hot, cold, wet, or windy it might be!

Date:

Astronomy

Mar. 31, 2013 Rise Set
Actual Time 8:19 AM AKDT 9:59 PM AKDT
Civil Twilight 7:25 AM AKDT 10:53 PM AKDT
Nautical Twilight 6:13 AM AKDT 12:06 AM AKDT
Astronomical Twilight 4:27 AM AKDT 1:59 AM AKDT
Moon 4:23 AM AKDT (3/31) 9:10 AM AKDT (3/31)
Length of Visible Light 15h 28m
Length of Day
13h 39m
Waning Gibbous, 76% of the Moon is Illuminated
Mar 31
Waning Gibbous
Apr 2
Last Quarter
Apr 10
New
Apr 18
First Quarter
Apr 25
Full

Hourly Weather History & Observations

Time (AKDT) Temp. Windchill Dew Point Humidity Pressure Visibility Wind Dir Wind Speed Gust Speed Precip Events Conditions
12:16 AM 1.4 °F - -20.2 °F 36% 30.34 in 10.0 mi Calm Calm - N/A   Overcast
12:36 AM 1.4 °F - -18.4 °F 39% 30.33 in 10.0 mi Calm Calm - N/A   Overcast
12:56 AM 1.4 °F - -16.6 °F 43% 30.33 in 10.0 mi Calm Calm - N/A   Overcast
1:16 AM 1.4 °F - -14.8 °F 47% 30.33 in 10.0 mi Calm Calm - N/A   Overcast
1:36 AM 1.4 °F - -13.0 °F 51% 30.33 in 10.0 mi Calm Calm - N/A   Overcast
1:56 AM 1.4 °F - -9.4 °F 61% 30.33 in 5.0 mi Calm Calm - N/A   Overcast
2:16 AM 1.4 °F - -7.6 °F 66% 30.33 in 10.0 mi Calm Calm - N/A   Overcast
2:36 AM 1.4 °F - -5.8 °F 72% 30.34 in 10.0 mi Calm Calm - N/A   Overcast
2:56 AM 1.4 °F - -5.8 °F 72% 30.34 in 10.0 mi Calm Calm - N/A   Overcast
3:16 AM -0.4 °F - -5.8 °F 78% 30.34 in 10.0 mi Calm Calm - N/A   Overcast
3:36 AM -0.4 °F - -5.8 °F 78% 30.34 in 10.0 mi Calm Calm - N/A   Overcast
3:56 AM -0.4 °F - -5.8 °F 78% 30.33 in 10.0 mi Calm Calm - N/A   Overcast
4:16 AM -0.4 °F - -29.2 °F 25% 30.33 in 10.0 mi Calm Calm - N/A   Overcast
4:36 AM 1.4 °F - -29.2 °F 23% 30.34 in 10.0 mi Calm Calm - N/A   Overcast
4:56 AM 1.4 °F - -25.6 °F 27% 30.34 in 10.0 mi Calm Calm - N/A   Overcast
5:16 AM 1.4 °F -6.2 °F -22.0 °F 33% 30.34 in 10.0 mi East 3.5 mph - N/A   Overcast
5:36 AM 1.4 °F -6.2 °F -20.2 °F 36% 30.34 in 10.0 mi East 3.5 mph - N/A   Overcast
5:56 AM 1.4 °F -6.2 °F -18.4 °F 39% 30.34 in 10.0 mi East 3.5 mph - N/A   Overcast
6:16 AM 1.4 °F -6.2 °F -16.6 °F 43% 30.33 in 10.0 mi East 3.5 mph - N/A   Overcast
6:36 AM 1.4 °F -9.9 °F -14.8 °F 47% 30.33 in 10.0 mi East 5.8 mph - N/A   Overcast
6:56 AM 1.4 °F -9.9 °F -13.0 °F 51% 30.33 in 10.0 mi East 5.8 mph - N/A   Overcast
7:16 AM 1.4 °F -9.9 °F -9.4 °F 61% 30.33 in 10.0 mi East 5.8 mph - N/A   Overcast
7:36 AM 1.4 °F -6.2 °F -7.6 °F 66% 30.34 in 10.0 mi East 3.5 mph - N/A   Overcast
7:56 AM 1.4 °F -6.2 °F -5.8 °F 72% 30.34 in 10.0 mi ESE 3.5 mph - N/A   Overcast
8:16 AM 1.4 °F -6.2 °F -7.6 °F 66% 30.34 in 10.0 mi East 3.5 mph - N/A   Overcast
8:36 AM 1.4 °F -6.2 °F -14.8 °F 47% 30.33 in 10.0 mi East 3.5 mph - N/A   Overcast
8:56 AM 1.4 °F -6.2 °F -29.2 °F 23% 30.33 in 10.0 mi East 3.5 mph - N/A   Overcast
9:16 AM 1.4 °F -8.3 °F -23.8 °F 30% 30.33 in 10.0 mi East 4.6 mph - N/A   Overcast
9:36 AM 1.4 °F -9.9 °F -18.4 °F 39% 30.32 in 10.0 mi ESE 5.8 mph - N/A   Overcast
9:56 AM 1.4 °F -8.3 °F -16.6 °F 43% 30.33 in 10.0 mi ESE 4.6 mph - N/A   Overcast
10:16 AM 3.2 °F -7.8 °F -14.8 °F 43% 30.33 in 10.0 mi East 5.8 mph - N/A   Overcast
10:36 AM 3.2 °F -7.8 °F -11.2 °F 51% 30.33 in 10.0 mi East 5.8 mph - N/A   Overcast
10:56 AM 3.2 °F -7.8 °F -7.6 °F 61% 30.33 in 10.0 mi ESE 5.8 mph - N/A   Overcast
11:16 AM 3.2 °F -7.8 °F -5.8 °F 66% 30.33 in 10.0 mi ESE 5.8 mph - N/A   Overcast
11:36 AM 3.2 °F -4.2 °F -5.8 °F 66% 30.33 in 9.0 mi ESE 3.5 mph - N/A   Overcast
11:56 AM 3.2 °F -4.2 °F -27.4 °F 23% 30.33 in 7.0 mi ESE 3.5 mph - N/A   Overcast
12:16 PM 5.0 °F -4.1 °F -23.8 °F 25% 30.33 in 10.0 mi East 4.6 mph - N/A   Overcast
12:36 PM 6.8 °F -2.0 °F -18.4 °F 31% 30.33 in 10.0 mi East 4.6 mph - N/A   Overcast
12:56 PM 6.8 °F -2.0 °F -13.0 °F 40% 30.34 in 10.0 mi ESE 4.6 mph - N/A   Overcast
1:16 PM 6.8 °F -2.0 °F -9.4 °F 48% 30.34 in 10.0 mi SSE 4.6 mph - N/A   Overcast
1:36 PM 6.8 °F -2.0 °F -7.6 °F 52% 30.34 in 10.0 mi SSE 4.6 mph - N/A   Overcast
1:56 PM 6.8 °F -3.5 °F -5.8 °F 56% 30.34 in 10.0 mi SSE 5.8 mph - N/A   Overcast
2:16 PM 6.8 °F -2.0 °F -2.2 °F 67% 30.34 in 10.0 mi SE 4.6 mph - N/A   Overcast
2:36 PM 6.8 °F -3.5 °F -2.2 °F 67% 30.34 in 8.0 mi SE 5.8 mph - N/A   Overcast
2:56 PM 6.8 °F -3.5 °F -23.8 °F 23% 30.34 in 8.0 mi SE 5.8 mph - N/A   Overcast
3:16 PM 6.8 °F -2.0 °F -23.8 °F 23% 30.34 in 9.0 mi SE 4.6 mph - N/A   Overcast
3:36 PM 6.8 °F -3.5 °F -16.6 °F 34% 30.33 in 10.0 mi SE 5.8 mph - N/A   Overcast
3:56 PM 6.8 °F -3.5 °F -13.0 °F 40% 30.33 in 10.0 mi ESE 5.8 mph - N/A   Overcast
4:16 PM 6.8 °F -4.8 °F -9.4 °F 48% 30.33 in 10.0 mi ESE 6.9 mph - N/A   Overcast
4:36 PM 6.8 °F -4.8 °F -7.6 °F 52% 30.33 in 10.0 mi ESE 6.9 mph - N/A   Mostly Cloudy
4:56 PM 6.8 °F -4.8 °F -5.8 °F 56% 30.32 in 10.0 mi ESE 6.9 mph - N/A   Partly Cloudy
5:16 PM 6.8 °F -3.5 °F -2.2 °F 67% 30.32 in 10.0 mi ESE 5.8 mph - N/A   Clear
5:36 PM 6.8 °F -4.8 °F -0.4 °F 72% 30.32 in 10.0 mi ESE 6.9 mph - N/A   Clear
5:56 PM 6.8 °F -3.5 °F -18.4 °F 31% 30.32 in 10.0 mi East 5.8 mph - N/A   Clear
6:16 PM 6.8 °F -3.5 °F -23.8 °F 23% 30.32 in 10.0 mi East 5.8 mph - N/A   Clear
6:36 PM 6.8 °F -2.0 °F -18.4 °F 31% 30.32 in 10.0 mi East 4.6 mph - N/A   Clear
6:56 PM 6.8 °F -3.5 °F -14.8 °F 37% 30.31 in 10.0 mi East 5.8 mph - N/A   Clear
7:16 PM 6.8 °F -3.5 °F -11.2 °F 44% 30.31 in 10.0 mi East 5.8 mph - N/A   Clear
7:36 PM 6.8 °F -3.5 °F -9.4 °F 48% 30.32 in 10.0 mi East 5.8 mph - N/A   Clear
7:56 PM 6.8 °F -3.5 °F -7.6 °F 52% 30.31 in 10.0 mi ENE 5.8 mph - N/A   Clear
8:16 PM 5.0 °F -5.6 °F -5.8 °F 61% 30.31 in 10.0 mi East 5.8 mph - N/A   Clear
8:36 PM 3.2 °F -7.8 °F -4.0 °F 72% 30.31 in 10.0 mi ENE 5.8 mph - N/A   Clear
8:56 PM 3.2 °F -7.8 °F -2.2 °F 78% 30.31 in 10.0 mi ENE 5.8 mph - N/A   Clear
9:16 PM 3.2 °F -7.8 °F -0.4 °F 85% 30.31 in 10.0 mi East 5.8 mph - N/A   Clear
9:36 PM 1.4 °F -11.3 °F -29.2 °F 23% 30.30 in 4.0 mi East 6.9 mph - N/A   Clear
9:56 PM -0.4 °F -13.4 °F -29.2 °F 25% 30.30 in 10.0 mi East 6.9 mph - N/A   Clear
10:16 PM -2.2 °F -15.6 °F -25.6 °F 32% 30.31 in 10.0 mi East 6.9 mph - N/A   Clear
10:36 PM -2.2 °F -14.2 °F -25.6 °F 32% 30.31 in 10.0 mi East 5.8 mph - N/A   Clear
10:56 PM -2.2 °F -14.2 °F -23.8 °F 35% 30.30 in 10.0 mi East 5.8 mph - N/A   Scattered Clouds
11:16 PM -2.2 °F -15.6 °F -22.0 °F 39% 30.30 in 10.0 mi East 6.9 mph - N/A   Partly Cloudy
11:36 PM -2.2 °F -15.6 °F -18.4 °F 46% 30.30 in 9.0 mi ENE 6.9 mph - N/A   Clear